Location: Saluda
(35.2377°N, 82.3468°W)
Time: 14:28:06
(UTC+00:00)

SR - Pass Details

Date: 13 October 2022
Orbit: 577 x 875 km, 66.7° (Epoch: 28 November)

Event Time Altitude Azimuth Distance (km) Brightness Sun altitude
Rises 23:06:45 0° 201° (SSW) 3,404 ? -2.9°
Reaches altitude 10° 23:09:11 10° 200° (SSW) 2,492 ? -3.3°
Maximum altitude 23:15:01 79° 115° (ESE) 892 ? -4.5°
Drops below altitude 10° 23:20:54 10° 29° (NNE) 2,514 ? -5.7°
Sets 23:23:22 0° 29° (NNE) 3,436 ? -6.2°
